Home > Weather > Barysaw > Past weeks

Flag for Belarus Weather for the Past 2 Weeks in Barysaw, Belarus

Now
34 °F

Light rain. Overcast.


Feels Like: 22 °F
Forecast: 31 / 35 °F
Wind: 22 mph from Southeast

Location: Minsk

Current Time: Feb 14, 2016 at 1:20:35 AM

Latest Report: Feb 14, 2016 at 12:30 AM


Visibility: N/A

Pressure: 29.65 "Hg

Humidity: 93%

Dew point: 32 °F

Location of BarysawLocation

Historic Weather in Barysaw — Graph

°F

Barysaw Temperature Yesterday

Maximum temperature yesterday: 37 °F (at 2:00 PM)
Minimum temperature yesterday: 30 °F (at 3:00 AM)
Average temperature yesterday: 33 °F

High & Low Weather Summary for the Past Weeks

 TemperatureHumidityPressure
High45 °F (Feb 2, 3:30 PM)100% (Jan 30, 8:30 AM)30.18 "Hg (Jan 30, 8:30 AM)
Low28 °F (Feb 8, 6:30 AM)60% (Feb 6, 2:00 PM)29.33 "Hg (Feb 11, 6:30 PM)
Average35 °F86%29.71 "Hg
* Reported Midnight between Jan 29 and Jan 30 — Midnight between Feb 13 and Feb 14, Barysaw, Weather by CustomWeather, © 2016

Note: Actual official high and low records may vary slightly from our data, if they occured in-between our weather recording intervals... More about our weather records

Advertising

Barysaw Weather History for the Previous 24 Hours

 ConditionsComfort  
Time TempWeatherWind HumidityBarometerVisibility
12:00 AM
Sun, Feb 14
34 °FLow clouds.20 mph93%29.65 "HgN/A
11:30 PM
Sat, Feb 13
34 °FLow clouds.20 mph93%29.68 "Hg5 mi
11:00 PM34 °FLow clouds.20 mph93%29.68 "Hg5 mi
10:45 PM32 °FLow clouds.20 mph100%29.68 "Hg4 mi
10:30 PM32 °FLight rain. Ice fog.20 mph100%29.68 "Hg3 mi
10:00 PM32 °FLight rain. Ice fog.20 mph100%29.68 "Hg2 mi
9:30 PM32 °FLight rain. Ice fog.20 mph100%29.68 "Hg2 mi
9:00 PM32 °FLight rain. Ice fog.20 mph100%29.71 "Hg3 mi
8:30 PM32 °FLight rain. Ice fog.17 mph100%29.71 "Hg2 mi
8:00 PM32 °FLight rain. Ice fog.17 mph100%29.71 "Hg1 mi
7:30 PM32 °FLight rain. Ice fog.20 mph100%29.71 "Hg1 mi
7:00 PM32 °FLight snow. Low clouds.20 mph100%29.74 "Hg4 mi
6:30 PM34 °FLow clouds.17 mph93%29.74 "Hg5 mi
6:00 PM34 °FLow clouds.17 mph93%29.74 "Hg6 mi
5:30 PM34 °FLow clouds.20 mph93%29.74 "HgN/A
5:00 PM34 °FPartly sunny.17 mph93%29.74 "HgN/A
4:30 PM34 °FPartly sunny.17 mph93%29.74 "HgN/A
4:00 PM34 °FPartly sunny.20 mph93%29.77 "HgN/A
3:30 PM36 °FPartly sunny.20 mph87%29.77 "HgN/A
3:00 PM36 °FPartly sunny.22 mph87%29.77 "HgN/A
2:30 PM37 °FSunny.17 mph81%29.77 "Hg10 mi
2:00 PM37 °FSunny.20 mph81%29.77 "Hg10 mi
1:30 PM36 °FBroken clouds.17 mph87%29.77 "HgN/A
1:00 PM34 °FSunny.17 mph93%29.77 "Hg10 mi
12:30 PM34 °FSunny.15 mph93%29.80 "Hg10 mi
12:00 PM34 °FSunny.10 mph93%29.80 "Hg10 mi
11:30 AM34 °FSunny.15 mph93%29.80 "Hg10 mi
11:00 AM34 °FSunny.10 mph87%29.80 "Hg10 mi
10:30 AM34 °FSunny.10 mph87%29.80 "Hg10 mi
10:00 AM32 °FSunny.8 mph93%29.80 "Hg10 mi
9:30 AM32 °FPassing clouds.6 mph93%29.80 "HgN/A
9:00 AM32 °FClear.6 mph93%29.80 "Hg10 mi
8:30 AM32 °FClear.6 mph93%29.80 "Hg10 mi
8:00 AM32 °FClear.3 mph93%29.80 "Hg10 mi
7:30 AM32 °FClear.3 mph93%29.80 "Hg10 mi
7:00 AM32 °FClear.6 mph93%29.80 "Hg10 mi
6:30 AM32 °FClear.6 mph93%29.83 "Hg10 mi
6:00 AM32 °FClear.6 mph93%29.83 "Hg10 mi
5:30 AM34 °FClear.6 mph87%29.83 "Hg10 mi
5:00 AM34 °FClear.6 mph87%29.80 "Hg10 mi
4:30 AM32 °FPassing clouds.3 mph93%29.80 "HgN/A
4:00 AM32 °FClear.No wind93%29.83 "Hg10 mi
3:30 AM32 °FClear.3 mph100%29.83 "Hg6 mi
3:00 AM30 °FClear.3 mph100%29.83 "Hg4 mi
2:30 AM32 °FClear.3 mph100%29.83 "Hg5 mi
2:00 AM32 °FClear.3 mph100%29.83 "Hg4 mi
1:30 AM32 °FClear.3 mph100%29.83 "Hg5 mi
1:00 AM32 °FIce fog.3 mph100%29.83 "Hg3 mi
Weather by CustomWeather, © 2016

See weather overviewHow to use our weather pages